This demonstration page uses our WeatherBlox Daily Observations layout. Learn more.

Left ArrowRight Arrow

40.92501, -98.34201

Hourly Observations for June 12, 2020

Temp ( °F °C ) Dew Point ( °F °C ) Humidity (%) Winds ( mph kmh ) Pressure ( in mb ) Visibility ( mi km ) Precip ( " mm )
12:53 am 00:53 Clear 64 17.8 56 13.3 75 75 ENE 5 7 30.26 1025 10 16 0.00 0.00
1:53 am 01:53 Clear 68 20 50 10 53 53 E 8 13 30.24 1024 10 16 0.00 0.00
2:53 am 02:53 Clear 67 19.4 49 9.4 53 53 E 8 13 30.25 1024 10 16 0.00 0.00
3:53 am 03:53 Clear 67 19.4 48 8.9 51 51 E 7 11 30.24 1024 10 16 0.00 0.00
4:53 am 04:53 Clear 67 19.4 47 8.3 49 49 ESE 9 15 30.23 1024 10 16 0.00 0.00
5:53 am 05:53 Clear 68 20 47 8.3 47 47 SE 10 17 30.22 1023 10 16 0.00 0.00
6:53 am 06:53 Sunny 68 20 47 8.3 47 47 SE 14 22 30.22 1023 10 16 0.00 0.00
7:53 am 07:53 Sunny 70 21.1 51 10.6 51 51 ENE 8 13 30.23 1024 10 16 0.00 0.00
8:53 am 08:53 Sunny 73 22.8 53 11.7 50 50 E 7 11 30.25 1024 10 16 0.00 0.00
9:53 am 09:53 Sunny 76 24.4 56 13.3 50 50 ESE 7 11 30.26 1025 10 16 0.00 0.00
10:53 am 10:53 Sunny 81 27.2 55 12.8 41 41 ESE 12 19 30.25 1024 10 16 0.00 0.00
11:53 am 11:53 Sunny 85 29.4 56 13.3 37 37 E 9 15 30.25 1024 10 16 0.00 0.00
12:53 pm 12:53 Sunny 87 30.6 57 13.9 36 36 SE 12 19 30.24 1024 10 16 0.00 0.00
1:53 pm 13:53 Sunny 88 31.1 55 12.8 33 33 ESE 8 13 30.22 1023 10 16 0.00 0.00
2:53 pm 14:53 Sunny 89 31.7 53 11.7 29 29 ESE 10 17 30.20 1023 10 16 0.00 0.00
3:53 pm 15:53 Sunny 90 32.2 52 11.1 27 27 ESE 7 11 30.18 1022 10 16 0.00 0.00
4:53 pm 16:53 Sunny 90 32.2 50 10 25 25 SE 6 9 30.16 1021 10 16 0.00 0.00
5:53 pm 17:53 Sunny 90 32.2 49 9.4 24 24 ESE 9 15 30.15 1021 10 16 0.00 0.00
6:53 pm 18:53 Sunny 89 31.7 51 10.6 27 27 ESE 12 19 30.14 1021 10 16 0.00 0.00
7:53 pm 19:53 Sunny 86 30 54 12.2 33 33 ESE 9 15 30.13 1020 10 16 0.00 0.00
8:53 pm 20:53 Sunny 82 27.8 52 11.1 35 35 SE 7 11 30.12 1020 10 16 0.00 0.00
9:53 pm 21:53 Clear 77 25 53 11.7 43 43 SSE 7 11 30.13 1020 10 16 0.00 0.00
10:53 pm 22:53 Clear 75 23.9 54 12.2 48 48 SSE 7 11 30.14 1021 10 16 0.00 0.00
11:53 pm 23:53 Clear 72 22.2 55 12.8 55 55 S 3 6 30.14 1021 10 16 0.00 0.00

Powered by AerisWeather